START_TIME,STEP,MOV.,M34,t_acc.,L5,t_acc.,L18,t_acc.,L14,t_acc.
1979-07-21 09:00:24.410 ,0,0,0.,12.0,0.,12.0,0.,12.0,0.,12.0
1979-07-21 09:00:36.410 ,0,0,0.,12.0,0.,12.0,0.,12.0,0.,12.0
1979-07-21 09:00:48.410 ,0,1,0.,12.0,0.,12.0,0.,12.0,0.,12.0
1979-07-21 09:01:00.410 ,0,1,0.,12.0,0.,12.0,0.,12.0,0.,12.0
1979-07-21 09:01:12.410 ,0,0,0.,12.0,0.,12.0,0.,12.0,0.,12.0
1979-07-21 09:01:24.410 ,0,0,0.,12.0,0.,12.0,0.,12.0,0.,12.0
1979-07-21 09:01:36.410 ,1,1,0.,12.0,0.,12.0,0.,12.0,0.,12.0
1979-07-21 09:01:48.410 ,1,1,0.,12.0,0.,12.0,0.,12.0,0.,12.0
1979-07-21 09:02:00.410 ,1,0,0.,12.0,0.,12.0,0.,12.0,0.,12.0
1979-07-21 09:02:12.410 ,1,0,0.,12.0,0.,12.0,0.,12.0,0.,12.0
1979-07-21 09:02:24.410 ,0,0,0.,12.0,0.,12.0,0.,12.0,0.,12.0
1979-07-21 09:02:36.410 ,0,0,0.,12.0,0.,12.0,0.,12.0,0.,12.0
1979-07-21 09:02:48.410 ,0,0,0.,12.0,0.,12.0,0.,12.0,0.,12.0
1979-07-21 09:03:00.410 ,0,0,0.,12.0,0.,12.0,0.,12.0,0.,12.0
1979-07-21 09:03:12.410 ,3,1,0.,12.0,0.,12.0,0.,12.0,0.,12.0
1979-07-21 09:03:24.410 ,3,1,0.,12.0,0.,12.0,0.,12.0,0.,12.0
1979-07-21 09:03:36.410 ,3,0,0.,12.0,0.,12.0,0.,12.0,0.,12.0
1979-07-21 09:03:48.410 ,3,0,0.,12.0,0.,12.0,0.,12.0,0.,12.0
1979-07-21 09:04:00.410 ,4,1,0.,12.0,0.,12.0,0.,12.0,0.,12.0
1979-07-21 09:04:12.410 ,4,1,0.,12.0,0.,12.0,0.,12.0,0.,12.0
1979-07-21 09:04:24.410 ,4,0,0.,12.0,0.,12.0,0.,12.0,0.,12.0
1979-07-21 09:04:36.410 ,4,0,0.,12.0,0.,12.0,0.,12.0,0.,12.0
1979-07-21 09:04:48.410 ,5,1,0.,12.0,0.,12.0,0.,12.0,0.,12.0
1979-07-21 09:05:00.410 ,5,1,0.,12.0,0.,12.0,0.,12.0,0.,12.0
1979-07-21 09:05:12.410 ,5,0,0.,12.0,0.,12.0,0.,12.0,0.,12.0
1979-07-21 09:05:24.410 ,5,0,0.,12.0,0.,12.0,0.,12.0,0.,12.0
1979-07-21 09:05:36.410 ,6,1,0.,12.0,0.,12.0,0.,12.0,0.,12.0
1979-07-21 09:05:48.410 ,6,1,0.,12.0,0.,12.0,0.,12.0,0.,12.0
1979-07-21 09:06:00.410 ,6,0,0.,12.0,0.,12.0,0.,12.0,0.,12.0
1979-07-21 09:06:12.410 ,6,0,0.,12.0,0.,12.0,0.,12.0,0.,12.0
1979-07-21 09:06:24.410 ,7,0,0.,12.0,0.,12.0,0.,12.0,0.,12.0
1979-07-21 09:06:36.410 ,7,0,0.,12.0,0.,12.0,0.,12.0,0.,12.0
1979-07-21 09:06:48.410 ,7,0,0.,12.0,0.,12.0,0.,12.0,0.,12.0
1979-07-21 09:07:00.410 ,7,0,0.,12.0,0.,12.0,0.,12.0,0.,12.0
1979-07-21 09:07:12.410 ,4,1,0.,12.0,0.,12.0,0.,12.0,0.,12.0
1979-07-21 09:07:24.410 ,4,1,0.,12.0,0.,12.0,0.,12.0,0.,12.0
1979-07-21 09:07:36.410 ,0,1,0.,12.0,0.,12.0,0.,12.0,0.,12.0
1979-07-21 09:07:48.410 ,0,1,1.,12.0,0.,12.0,0.,12.0,0.,12.0
1979-07-21 09:08:00.410 ,3,1,0.,12.0,0.,12.0,0.,12.0,0.,12.0
1979-07-21 09:08:12.410 ,3,1,0.,12.0,0.,12.0,0.,12.0,0.,12.0
1979-07-21 09:08:24.410 ,7,1,0.,12.0,0.,12.0,0.,12.0,0.,12.0
1979-07-21 09:08:36.410 ,7,1,0.,12.0,0.,12.0,0.,12.0,0.,12.0
1979-07-21 09:08:48.410 ,4,1,0.,12.0,0.,12.0,0.,12.0,0.,12.0
1979-07-21 09:09:00.410 ,4,1,0.,12.0,0.,12.0,0.,12.0,0.,12.0
1979-07-21 09:09:12.410 ,0,1,0.,12.0,0.,12.0,0.,12.0,0.,12.0
1979-07-21 09:09:24.410 ,0,1,0.,12.0,0.,12.0,0.,12.0,0.,12.0
1979-07-21 09:09:36.410 ,3,1,0.,12.0,0.,12.0,0.,12.0,0.,12.0
1979-07-21 09:09:48.410 ,3,1,0.,12.0,0.,12.0,0.,12.0,0.,12.0
1979-07-21 09:10:00.410 ,7,1,0.,12.0,0.,12.0,0.,12.0,0.,12.0
1979-07-21 09:10:12.410 ,7,1,0.,12.0,0.,12.0,0.,12.0,0.,12.0
1979-07-21 09:10:24.410 ,4,1,0.,12.0,0.,12.0,0.,12.0,0.,12.0
1979-07-21 09:10:36.410 ,4,1,0.,12.0,0.,12.0,0.,12.0,0.,12.0
1979-07-21 09:10:48.410 ,0,1,0.,12.0,0.,12.0,0.,12.0,0.,12.0
1979-07-21 09:11:00.410 ,0,1,0.,12.0,0.,12.0,0.,12.0,0.,12.0
1979-07-21 09:11:12.410 ,3,1,0.,12.0,0.,12.0,0.,12.0,0.,12.0
1979-07-21 09:11:24.410 ,3,1,0.,12.0,0.,12.0,0.,12.0,0.,12.0
1979-07-21 09:11:36.410 ,7,1,0.,12.0,0.,12.0,0.,12.0,0.,12.0
1979-07-21 09:11:48.410 ,7,1,0.,12.0,0.,12.0,0.,12.0,0.,12.0
1979-07-21 09:12:00.410 ,4,1,0.,12.0,0.,12.0,0.,12.0,0.,12.0
1979-07-21 09:12:12.410 ,4,1,0.,12.0,0.,12.0,0.,12.0,0.,12.0
1979-07-21 09:12:24.410 ,0,1,0.,12.0,0.,12.0,0.,12.0,0.,12.0
1979-07-21 09:12:36.410 ,0,1,0.,12.0,0.,12.0,0.,12.0,0.,12.0
1979-07-21 09:12:48.410 ,3,1,0.,12.0,0.,12.0,0.,12.0,0.,12.0
1979-07-21 09:13:00.410 ,3,1,0.,12.0,0.,12.0,0.,12.0,0.,12.0
1979-07-21 09:13:12.410 ,7,1,0.,12.0,0.,12.0,0.,12.0,0.,12.0
1979-07-21 09:13:24.410 ,7,1,0.,12.0,0.,12.0,0.,12.0,0.,12.0
1979-07-21 09:13:36.410 ,4,1,0.,12.0,0.,12.0,0.,12.0,0.,12.0
1979-07-21 09:13:48.410 ,4,1,0.,12.0,0.,12.0,0.,12.0,0.,12.0
1979-07-21 09:14:00.410 ,0,1,0.,12.0,0.,12.0,0.,12.0,0.,12.0
1979-07-21 09:14:12.410 ,0,1,1.,12.0,0.,12.0,0.,12.0,0.,12.0
1979-07-21 09:14:24.410 ,3,1,0.,12.0,0.,12.0,0.,12.0,0.,12.0
1979-07-21 09:14:36.410 ,3,1,0.,12.0,0.,12.0,0.,12.0,0.,12.0
1979-07-21 09:14:48.410 ,7,1,0.,12.0,0.,12.0,0.,12.0,0.,12.0
1979-07-21 09:15:00.410 ,7,1,0.,12.0,0.,12.0,0.,12.0,0.,12.0
1979-07-21 09:15:12.410 ,4,1,0.,12.0,0.,12.0,0.,12.0,0.,12.0
1979-07-21 09:15:24.410 ,4,1,0.,12.0,0.,12.0,0.,12.0,0.,12.0
1979-07-21 09:15:36.410 ,0,1,0.,12.0,0.,12.0,0.,12.0,0.,12.0
1979-07-21 09:15:48.410 ,0,1,0.,12.0,0.,12.0,0.,12.0,0.,12.0
1979-07-21 09:16:00.410 ,3,1,0.,12.0,0.,12.0,0.,12.0,0.,12.0
1979-07-21 09:16:12.410 ,3,1,0.,12.0,0.,12.0,0.,12.0,0.,12.0
1979-07-21 09:16:24.410 ,7,1,0.,12.0,0.,12.0,0.,12.0,0.,12.0
1979-07-21 09:16:36.410 ,7,1,0.,12.0,0.,12.0,0.,12.0,0.,12.0
1979-07-21 09:16:48.410 ,4,1,0.,12.0,0.,12.0,0.,12.0,0.,12.0
1979-07-21 09:17:00.410 ,4,1,0.,12.0,0.,12.0,0.,12.0,0.,12.0
1979-07-21 09:17:12.410 ,0,1,0.,12.0,0.,12.0,0.,12.0,0.,12.0
1979-07-21 09:17:24.410 ,0,1,0.,12.0,0.,12.0,0.,12.0,0.,12.0
1979-07-21 09:17:36.410 ,0,0,0.,12.0,0.,12.0,0.,12.0,0.,12.0
1979-07-21 09:17:48.410 ,0,0,0.,12.0,0.,12.0,0.,12.0,0.,12.0
1979-07-21 09:18:00.410 ,0,0,0.,12.0,0.,12.0,0.,12.0,0.,12.0
1979-07-21 09:18:12.410 ,0,0,0.,12.0,0.,12.0,0.,12.0,0.,12.0
1979-07-21 09:18:24.410 ,5,1,0.,12.0,0.,12.0,0.,12.0,0.,12.0
1979-07-21 09:18:36.410 ,5,1,0.,12.0,0.,12.0,0.,12.0,0.,12.0
1979-07-21 09:18:48.410 ,5,0,0.,12.0,0.,12.0,0.,12.0,0.,12.0
1979-07-21 09:19:00.410 ,5,0,0.,12.0,0.,12.0,0.,12.0,0.,12.0
1979-07-21 09:19:12.410 ,4,1,0.,12.0,0.,12.0,0.,12.0,0.,12.0
1979-07-21 09:19:24.410 ,4,1,0.,12.0,0.,12.0,0.,12.0,0.,12.0
1979-07-21 09:19:36.410 ,4,0,0.,12.0,0.,12.0,0.,12.0,0.,12.0
1979-07-21 09:19:48.410 ,4,0,0.,12.0,0.,12.0,0.,12.0,0.,12.0
1979-07-21 09:20:00.410 ,3,1,0.,12.0,0.,12.0,0.,12.0,0.,12.0
1979-07-21 09:20:12.410 ,3,1,0.,12.0,0.,12.0,0.,12.0,0.,12.0
1979-07-21 09:20:24.410 ,3,0,0.,12.0,0.,12.0,0.,12.0,0.,12.0
1979-07-21 09:20:36.410 ,3,0,0.,12.0,0.,12.0,0.,12.0,0.,12.0
1979-07-21 09:20:48.410 ,2,1,0.,12.0,0.,12.0,0.,12.0,0.,12.0
1979-07-21 09:21:00.410 ,2,1,0.,12.0,0.,12.0,0.,12.0,0.,12.0
1979-07-21 09:21:12.410 ,2,0,0.,12.0,0.,12.0,0.,12.0,0.,12.0
1979-07-21 09:21:24.410 ,2,0,0.,12.0,0.,12.0,0.,12.0,0.,12.0
1979-07-21 09:21:36.410 ,1,1,0.,12.0,0.,12.0,0.,12.0,0.,12.0
1979-07-21 09:21:48.410 ,1,1,0.,12.0,0.,12.0,0.,12.0,0.,12.0
1979-07-21 09:22:00.410 ,1,0,0.,12.0,0.,12.0,0.,12.0,0.,12.0
1979-07-21 09:22:12.410 ,1,0,0.,12.0,0.,12.0,0.,12.0,0.,12.0
1979-07-21 09:22:24.410 ,0,1,0.,12.0,0.,12.0,0.,12.0,0.,12.0
1979-07-21 09:22:36.410 ,0,1,0.,12.0,0.,12.0,0.,12.0,0.,12.0
1979-07-21 09:22:48.410 ,0,0,0.,12.0,0.,12.0,0.,12.0,0.,12.0
1979-07-21 09:23:00.410 ,0,0,0.,12.0,0.,12.0,0.,12.0,1.,12.0
1979-07-21 09:23:12.410 ,0,1,0.,12.0,0.,12.0,0.,12.0,0.,12.0
1979-07-21 09:23:24.410 ,0,1,0.,12.0,0.,12.0,0.,12.0,0.,12.0
1979-07-21 09:23:36.410 ,0,0,0.,12.0,0.,12.0,0.,12.0,0.,12.0
1979-07-21 09:23:48.410 ,0,0,0.,12.0,0.,12.0,0.,12.0,0.,12.0
1979-07-21 09:24:00.410 ,1,1,0.,12.0,0.,12.0,0.,12.0,0.,12.0
1979-07-21 09:24:12.410 ,1,1,0.,12.0,0.,12.0,0.,12.0,0.,12.0
1979-07-21 09:24:24.410 ,1,0,0.,12.0,0.,12.0,0.,12.0,0.,12.0
1979-07-21 09:24:36.410 ,1,0,0.,12.0,0.,12.0,0.,12.0,0.,12.0
1979-07-21 09:24:48.410 ,2,1,0.,12.0,0.,12.0,0.,12.0,0.,12.0
1979-07-21 09:25:00.410 ,2,1,0.,12.0,0.,12.0,0.,12.0,0.,12.0
1979-07-21 09:25:12.410 ,2,0,0.,12.0,0.,12.0,0.,12.0,0.,12.0
1979-07-21 09:25:24.410 ,2,0,0.,12.0,0.,12.0,0.,12.0,0.,12.0
1979-07-21 09:25:36.410 ,3,1,0.,12.0,0.,12.0,0.,12.0,0.,12.0
1979-07-21 09:25:48.410 ,3,1,0.,12.0,0.,12.0,0.,12.0,0.,12.0
1979-07-21 09:26:00.410 ,3,0,0.,12.0,0.,12.0,0.,12.0,0.,12.0
1979-07-21 09:26:12.410 ,3,0,1.,12.0,0.,12.0,0.,12.0,0.,12.0
1979-07-21 09:26:24.410 ,4,1,0.,12.0,0.,12.0,0.,12.0,0.,12.0
1979-07-21 09:26:36.410 ,4,1,0.,12.0,0.,12.0,0.,12.0,0.,12.0
1979-07-21 09:26:48.410 ,4,0,0.,12.0,0.,12.0,0.,12.0,0.,12.0
1979-07-21 09:27:00.410 ,4,0,0.,12.0,0.,12.0,0.,12.0,0.,12.0
1979-07-21 09:27:12.410 ,5,1,0.,12.0,0.,12.0,0.,12.0,0.,12.0
1979-07-21 09:27:24.410 ,5,1,0.,12.0,0.,12.0,0.,12.0,0.,12.0
1979-07-21 09:27:36.410 ,5,0,0.,12.0,0.,12.0,0.,12.0,0.,12.0
1979-07-21 09:27:48.410 ,5,0,0.,12.0,0.,12.0,0.,12.0,0.,12.0
1979-07-21 09:28:00.410 ,6,1,0.,12.0,0.,12.0,0.,12.0,0.,12.0
1979-07-21 09:28:12.410 ,6,1,0.,12.0,0.,12.0,0.,12.0,0.,12.0
1979-07-21 09:28:24.410 ,6,0,0.,12.0,0.,12.0,0.,12.0,0.,12.0
1979-07-21 09:28:36.410 ,6,0,0.,12.0,0.,12.0,0.,12.0,0.,12.0
1979-07-21 09:28:48.410 ,7,1,0.,12.0,0.,12.0,0.,12.0,0.,12.0
1979-07-21 09:29:00.410 ,7,1,0.,12.0,0.,12.0,0.,12.0,0.,12.0
1979-07-21 09:29:12.410 ,7,0,0.,12.0,0.,12.0,0.,12.0,0.,12.0
1979-07-21 09:29:24.410 ,7,0,0.,12.0,0.,12.0,0.,12.0,0.,12.0
1979-07-21 09:29:36.410 ,7,1,0.,12.0,0.,12.0,0.,12.0,0.,12.0
1979-07-21 09:29:48.410 ,7,1,0.,12.0,0.,12.0,0.,12.0,0.,12.0
1979-07-21 09:30:00.410 ,7,0,0.,12.0,0.,12.0,0.,12.0,0.,12.0
1979-07-21 09:30:12.410 ,7,0,0.,12.0,0.,12.0,0.,12.0,0.,12.0
1979-07-21 09:30:24.410 ,6,1,0.,12.0,0.,12.0,0.,12.0,0.,12.0
1979-07-21 09:30:36.410 ,6,1,0.,12.0,0.,12.0,0.,12.0,0.,12.0
1979-07-21 09:30:48.410 ,6,0,0.,12.0,0.,12.0,0.,12.0,0.,12.0
1979-07-21 09:31:00.410 ,6,0,0.,12.0,0.,12.0,0.,12.0,0.,12.0
1979-07-21 09:31:12.410 ,5,1,0.,12.0,0.,12.0,0.,12.0,0.,12.0
1979-07-21 09:31:24.410 ,5,1,0.,12.0,0.,12.0,0.,12.0,0.,12.0
1979-07-21 09:31:36.410 ,5,0,0.,12.0,0.,12.0,0.,12.0,0.,12.0
1979-07-21 09:31:48.410 ,5,0,0.,12.0,0.,12.0,0.,12.0,0.,12.0
1979-07-21 09:32:00.410 ,4,1,0.,12.0,0.,12.0,0.,12.0,0.,12.0
1979-07-21 09:32:12.410 ,4,1,0.,12.0,0.,12.0,0.,12.0,0.,12.0
1979-07-21 09:32:24.410 ,4,0,0.,12.0,0.,12.0,0.,12.0,0.,12.0
1979-07-21 09:32:36.410 ,4,0,0.,12.0,0.,12.0,0.,12.0,0.,12.0
1979-07-21 09:32:48.410 ,3,1,0.,12.0,0.,12.0,0.,12.0,0.,12.0
1979-07-21 09:33:00.410 ,3,1,0.,12.0,0.,12.0,0.,12.0,0.,12.0
1979-07-21 09:33:12.410 ,3,0,0.,12.0,0.,12.0,0.,12.0,0.,12.0
1979-07-21 09:33:24.410 ,3,0,0.,12.0,0.,12.0,0.,12.0,0.,12.0
1979-07-21 09:33:36.410 ,2,1,0.,12.0,0.,12.0,0.,12.0,0.,12.0
1979-07-21 09:33:48.410 ,2,1,0.,12.0,0.,12.0,0.,12.0,0.,12.0
1979-07-21 09:34:00.410 ,2,0,0.,12.0,0.,12.0,0.,12.0,0.,12.0
1979-07-21 09:34:12.410 ,2,0,0.,12.0,0.,12.0,0.,12.0,0.,12.0
1979-07-21 09:34:24.410 ,1,1,1.,12.0,0.,12.0,0.,12.0,0.,12.0
1979-07-21 09:34:36.410 ,1,1,0.,12.0,0.,12.0,0.,12.0,0.,12.0
1979-07-21 09:34:48.410 ,1,0,0.,12.0,0.,12.0,0.,12.0,0.,12.0
1979-07-21 09:35:00.410 ,1,0,0.,12.0,0.,12.0,0.,12.0,0.,12.0
1979-07-21 09:35:12.410 ,0,1,0.,12.0,0.,12.0,0.,12.0,0.,12.0
1979-07-21 09:35:24.410 ,0,1,0.,12.0,0.,12.0,0.,12.0,0.,12.0
1979-07-21 09:35:36.410 ,0,0,0.,12.0,0.,12.0,0.,12.0,0.,12.0
1979-07-21 09:35:48.410 ,0,0,0.,12.0,0.,12.0,0.,12.0,0.,12.0
1979-07-21 09:36:00.410 ,0,1,0.,12.0,0.,12.0,0.,12.0,0.,12.0
1979-07-21 09:36:12.410 ,0,1,0.,12.0,0.,12.0,0.,12.0,0.,12.0
1979-07-21 09:36:24.410 ,0,0,0.,12.0,0.,12.0,0.,12.0,0.,12.0
1979-07-21 09:36:36.410 ,0,0,0.,12.0,0.,12.0,0.,12.0,0.,12.0
1979-07-21 09:36:48.410 ,1,1,0.,12.0,0.,12.0,0.,12.0,0.,12.0
1979-07-21 09:37:00.410 ,1,1,0.,12.0,0.,12.0,0.,12.0,0.,12.0
1979-07-21 09:37:12.410 ,1,0,0.,12.0,0.,12.0,0.,12.0,0.,12.0
1979-07-21 09:37:24.410 ,1,0,0.,12.0,0.,12.0,0.,12.0,0.,12.0
1979-07-21 09:37:36.410 ,2,1,0.,12.0,0.,12.0,0.,12.0,0.,12.0
1979-07-21 09:37:48.410 ,2,1,0.,12.0,0.,12.0,0.,12.0,0.,12.0
1979-07-21 09:38:00.410 ,2,0,0.,12.0,0.,12.0,0.,12.0,0.,12.0
1979-07-21 09:38:12.410 ,2,0,0.,12.0,0.,12.0,0.,12.0,0.,12.0
1979-07-21 09:38:24.410 ,3,1,0.,12.0,0.,12.0,0.,12.0,0.,12.0
1979-07-21 09:38:36.410 ,3,1,0.,12.0,0.,12.0,0.,12.0,0.,12.0
1979-07-21 09:38:48.410 ,3,0,0.,12.0,0.,12.0,0.,12.0,0.,12.0
1979-07-21 09:39:00.410 ,3,0,0.,12.0,0.,12.0,0.,12.0,0.,12.0
1979-07-21 09:39:12.410 ,4,1,0.,12.0,0.,12.0,0.,12.0,0.,12.0
1979-07-21 09:39:24.410 ,4,1,0.,12.0,0.,12.0,0.,12.0,0.,12.0
1979-07-21 09:39:36.410 ,4,0,0.,12.0,0.,12.0,0.,12.0,0.,12.0
1979-07-21 09:39:48.410 ,4,0,0.,12.0,0.,12.0,0.,12.0,0.,12.0
1979-07-21 09:40:00.410 ,5,1,0.,12.0,0.,12.0,0.,12.0,0.,12.0
1979-07-21 09:40:12.410 ,5,1,0.,12.0,0.,12.0,0.,12.0,0.,12.0
1979-07-21 09:40:24.410 ,5,0,0.,12.0,0.,12.0,0.,12.0,0.,12.0
1979-07-21 09:40:36.410 ,5,0,0.,12.0,0.,12.0,0.,12.0,0.,12.0
1979-07-21 09:40:48.410 ,6,1,0.,12.0,0.,12.0,0.,12.0,0.,12.0
1979-07-21 09:41:00.410 ,6,1,0.,12.0,0.,12.0,0.,12.0,0.,12.0
1979-07-21 09:41:12.410 ,6,0,0.,12.0,0.,12.0,0.,12.0,0.,12.0
1979-07-21 09:41:24.410 ,6,0,0.,12.0,0.,12.0,0.,12.0,0.,12.0
1979-07-21 09:41:36.410 ,7,1,,0,,0,,0,,0
1979-07-21 09:41:48.410 ,7,1,0.,12.0,0.,12.0,0.,12.0,0.,12.0
1979-07-21 09:42:00.410 ,7,0,0.,12.0,0.,12.0,0.,12.0,0.,12.0
1979-07-21 09:42:12.410 ,7,0,0.,12.0,0.,12.0,0.,12.0,0.,12.0
1979-07-21 09:42:24.410 ,7,1,0.,12.0,0.,12.0,0.,12.0,0.,12.0
1979-07-21 09:42:36.410 ,7,1,0.,12.0,0.,12.0,0.,12.0,0.,12.0
1979-07-21 09:42:48.410 ,7,0,0.,12.0,0.,12.0,0.,12.0,0.,12.0
1979-07-21 09:43:00.410 ,7,0,0.,12.0,0.,12.0,0.,12.0,0.,12.0
1979-07-21 09:43:12.410 ,6,1,0.,12.0,0.,12.0,0.,12.0,0.,12.0
1979-07-21 09:43:24.410 ,6,1,0.,12.0,0.,12.0,0.,12.0,0.,12.0
1979-07-21 09:43:36.410 ,6,0,0.,12.0,0.,12.0,0.,12.0,0.,12.0
1979-07-21 09:43:48.410 ,6,0,0.,12.0,0.,12.0,0.,12.0,0.,12.0
1979-07-21 09:44:00.410 ,5,1,0.,12.0,0.,12.0,0.,12.0,0.,12.0
1979-07-21 09:44:12.410 ,5,1,0.,12.0,0.,12.0,0.,12.0,0.,12.0
1979-07-21 09:44:24.410 ,5,0,0.,12.0,0.,12.0,0.,12.0,0.,12.0
1979-07-21 09:44:36.410 ,5,0,0.,12.0,0.,12.0,0.,12.0,0.,12.0
1979-07-21 09:44:48.410 ,4,1,0.,12.0,0.,12.0,0.,12.0,0.,12.0
1979-07-21 09:45:00.410 ,4,1,0.,12.0,0.,12.0,0.,12.0,0.,12.0
1979-07-21 09:45:12.410 ,4,0,0.,12.0,0.,12.0,0.,12.0,0.,12.0
1979-07-21 09:45:24.410 ,4,0,0.,12.0,0.,12.0,0.,12.0,0.,12.0
1979-07-21 09:45:36.410 ,3,1,0.,12.0,0.,12.0,0.,12.0,0.,12.0
1979-07-21 09:45:48.410 ,3,1,0.,12.0,0.,12.0,0.,12.0,0.,12.0
1979-07-21 09:46:00.410 ,3,0,0.,12.0,0.,12.0,0.,12.0,0.,12.0
1979-07-21 09:46:12.410 ,3,0,0.,12.0,0.,12.0,0.,12.0,0.,12.0
1979-07-21 09:46:24.410 ,2,1,0.,12.0,0.,12.0,0.,12.0,0.,12.0
1979-07-21 09:46:36.410 ,2,1,0.,12.0,0.,12.0,0.,12.0,0.,12.0
1979-07-21 09:46:48.410 ,2,0,0.,12.0,0.,12.0,0.,12.0,0.,12.0
1979-07-21 09:47:00.410 ,2,0,0.,12.0,0.,12.0,0.,12.0,0.,12.0
1979-07-21 09:47:12.410 ,1,1,0.,12.0,0.,12.0,0.,12.0,0.,12.0
1979-07-21 09:47:24.410 ,1,1,0.,12.0,0.,12.0,0.,12.0,0.,12.0
1979-07-21 09:47:36.410 ,1,0,0.,12.0,0.,12.0,0.,12.0,0.,12.0
1979-07-21 09:47:48.410 ,1,0,1.,12.0,0.,12.0,0.,12.0,0.,12.0
1979-07-21 09:48:00.410 ,0,1,0.,12.0,0.,12.0,0.,12.0,0.,12.0
1979-07-21 09:48:12.410 ,0,1,0.,12.0,0.,12.0,0.,12.0,0.,12.0
1979-07-21 09:48:24.410 ,0,0,0.,12.0,0.,12.0,0.,12.0,0.,12.0
1979-07-21 09:48:36.410 ,0,0,0.,12.0,0.,12.0,0.,12.0,0.,12.0
1979-07-21 09:48:48.410 ,0,1,0.,12.0,0.,12.0,0.,12.0,0.,12.0
1979-07-21 09:49:00.410 ,0,1,0.,12.0,0.,12.0,0.,12.0,0.,12.0
1979-07-21 09:49:12.410 ,0,0,0.,12.0,0.,12.0,0.,12.0,0.,12.0
1979-07-21 09:49:24.410 ,0,0,0.,12.0,0.,12.0,0.,12.0,0.,12.0
1979-07-21 09:49:36.410 ,1,1,0.,12.0,0.,12.0,0.,12.0,0.,12.0
1979-07-21 09:49:48.410 ,1,1,0.,12.0,0.,12.0,0.,12.0,0.,12.0
1979-07-21 09:50:00.410 ,1,0,0.,12.0,0.,12.0,0.,12.0,0.,12.0
1979-07-21 09:50:12.410 ,1,0,0.,12.0,0.,12.0,0.,12.0,0.,12.0
1979-07-21 09:50:24.410 ,2,1,0.,12.0,0.,12.0,0.,12.0,0.,12.0
1979-07-21 09:50:36.410 ,2,1,0.,12.0,0.,12.0,0.,12.0,0.,12.0
1979-07-21 09:50:48.410 ,2,0,0.,12.0,0.,12.0,0.,12.0,0.,12.0
1979-07-21 09:51:00.410 ,2,0,0.,12.0,0.,12.0,0.,12.0,0.,12.0
1979-07-21 09:51:12.410 ,3,1,0.,12.0,0.,12.0,0.,12.0,0.,12.0
1979-07-21 09:51:24.410 ,3,1,0.,12.0,0.,12.0,0.,12.0,0.,12.0
1979-07-21 09:51:36.410 ,3,0,0.,12.0,0.,12.0,0.,12.0,0.,12.0
1979-07-21 09:51:48.410 ,3,0,0.,12.0,0.,12.0,0.,12.0,0.,12.0
1979-07-21 09:52:00.410 ,4,1,0.,12.0,0.,12.0,0.,12.0,0.,12.0
1979-07-21 09:52:12.410 ,4,1,0.,12.0,0.,12.0,0.,12.0,0.,12.0
1979-07-21 09:52:24.410 ,4,0,0.,12.0,0.,12.0,0.,12.0,0.,12.0
1979-07-21 09:52:36.410 ,4,0,0.,12.0,0.,12.0,0.,12.0,0.,12.0
1979-07-21 09:52:48.410 ,5,1,0.,12.0,0.,12.0,0.,12.0,0.,12.0
1979-07-21 09:53:00.410 ,5,1,0.,12.0,0.,12.0,0.,12.0,0.,12.0
1979-07-21 09:53:12.410 ,5,0,0.,12.0,0.,12.0,0.,12.0,0.,12.0
1979-07-21 09:53:24.410 ,5,0,0.,12.0,0.,12.0,0.,12.0,0.,12.0
1979-07-21 09:53:36.410 ,6,1,0.,12.0,0.,12.0,0.,12.0,0.,12.0
1979-07-21 09:53:48.410 ,6,1,0.,12.0,0.,12.0,0.,12.0,0.,12.0
1979-07-21 09:54:00.410 ,6,0,0.,12.0,0.,12.0,0.,12.0,0.,12.0
1979-07-21 09:54:12.410 ,6,0,0.,12.0,0.,12.0,0.,12.0,0.,12.0
1979-07-21 09:54:24.410 ,7,0,0.,12.0,0.,12.0,0.,12.0,0.,12.0
1979-07-21 09:54:36.410 ,7,0,0.,12.0,0.,12.0,0.,12.0,0.,12.0
1979-07-21 09:54:48.410 ,7,0,0.,12.0,0.,12.0,0.,12.0,0.,12.0
1979-07-21 09:55:00.410 ,7,0,0.,12.0,0.,12.0,0.,12.0,0.,12.0
1979-07-21 09:55:12.410 ,4,1,0.,12.0,0.,12.0,0.,12.0,0.,12.0
1979-07-21 09:55:24.410 ,4,1,0.,12.0,0.,12.0,0.,12.0,0.,12.0
1979-07-21 09:55:36.410 ,0,1,0.,12.0,0.,12.0,0.,12.0,0.,12.0
1979-07-21 09:55:48.410 ,0,1,0.,12.0,0.,12.0,0.,12.0,0.,12.0
1979-07-21 09:56:00.410 ,3,1,0.,12.0,0.,12.0,0.,12.0,0.,12.0
1979-07-21 09:56:12.410 ,3,1,0.,12.0,0.,12.0,0.,12.0,0.,12.0
1979-07-21 09:56:24.410 ,7,1,0.,12.0,0.,12.0,0.,12.0,0.,12.0
1979-07-21 09:56:36.410 ,7,1,0.,12.0,0.,12.0,0.,12.0,0.,12.0
1979-07-21 09:56:48.410 ,4,1,0.,12.0,0.,12.0,0.,12.0,0.,12.0
1979-07-21 09:57:00.410 ,4,1,0.,12.0,0.,12.0,0.,12.0,0.,12.0
1979-07-21 09:57:12.410 ,0,1,0.,12.0,0.,12.0,0.,12.0,0.,12.0
1979-07-21 09:57:24.410 ,0,1,0.,12.0,0.,12.0,0.,12.0,0.,12.0
1979-07-21 09:57:36.410 ,3,1,0.,12.0,0.,12.0,0.,12.0,0.,12.0
1979-07-21 09:57:48.410 ,3,1,0.,12.0,0.,12.0,0.,12.0,0.,12.0
1979-07-21 09:58:00.410 ,7,1,0.,12.0,0.,12.0,0.,12.0,0.,12.0
1979-07-21 09:58:12.410 ,7,1,0.,12.0,0.,12.0,0.,12.0,0.,12.0
1979-07-21 09:58:24.410 ,4,1,0.,12.0,0.,12.0,0.,12.0,0.,12.0
1979-07-21 09:58:36.410 ,4,1,0.,12.0,0.,12.0,0.,12.0,0.,12.0
1979-07-21 09:58:48.410 ,0,1,0.,12.0,0.,12.0,0.,12.0,0.,12.0
1979-07-21 09:59:00.410 ,0,1,0.,12.0,0.,12.0,0.,12.0,0.,12.0
1979-07-21 09:59:12.410 ,3,1,0.,12.0,0.,12.0,0.,12.0,0.,12.0
1979-07-21 09:59:24.410 ,3,1,0.,12.0,0.,12.0,0.,12.0,0.,12.0
1979-07-21 09:59:36.410 ,7,1,0.,12.0,0.,12.0,0.,12.0,0.,12.0
1979-07-21 09:59:48.410 ,7,1,0.,12.0,0.,12.0,0.,12.0,0.,12.0
1979-07-21 10:00:00.410 ,4,1,0.,12.0,0.,12.0,0.,12.0,0.,12.0
1979-07-21 10:00:12.410 ,4,1,0.,12.0,0.,12.0,0.,12.0,0.,12.0
1979-07-21 10:00:24.410 ,0,1,0.,12.0,0.,12.0,0.,12.0,0.,12.0
1979-07-21 10:00:36.410 ,0,1,0.,12.0,0.,12.0,0.,12.0,0.,12.0
1979-07-21 10:00:48.410 ,3,1,0.,12.0,0.,12.0,0.,12.0,0.,12.0
1979-07-21 10:01:00.410 ,3,1,0.,12.0,0.,12.0,0.,12.0,0.,12.0
1979-07-21 10:01:12.410 ,7,1,0.,12.0,0.,12.0,0.,12.0,0.,12.0
1979-07-21 10:01:24.410 ,7,1,0.,12.0,0.,12.0,0.,12.0,0.,12.0
1979-07-21 10:01:36.410 ,4,1,0.,12.0,0.,12.0,0.,12.0,0.,12.0
1979-07-21 10:01:48.410 ,4,1,0.,12.0,0.,12.0,0.,12.0,0.,12.0
1979-07-21 10:02:00.410 ,0,1,0.,12.0,0.,12.0,0.,12.0,0.,12.0
1979-07-21 10:02:12.410 ,0,1,0.,12.0,0.,12.0,0.,12.0,0.,12.0
1979-07-21 10:02:24.410 ,3,1,0.,12.0,0.,12.0,0.,12.0,0.,12.0
1979-07-21 10:02:36.410 ,3,1,0.,12.0,0.,12.0,0.,12.0,0.,12.0
1979-07-21 10:02:48.410 ,7,1,0.,12.0,0.,12.0,0.,12.0,0.,12.0
1979-07-21 10:03:00.410 ,7,1,0.,12.0,0.,12.0,0.,12.0,0.,12.0
1979-07-21 10:03:12.410 ,4,1,0.,12.0,0.,12.0,0.,12.0,0.,12.0
1979-07-21 10:03:24.410 ,4,1,0.,12.0,0.,12.0,0.,12.0,0.,12.0
1979-07-21 10:03:36.410 ,0,1,0.,12.0,0.,12.0,0.,12.0,0.,12.0
1979-07-21 10:03:48.410 ,0,1,0.,12.0,0.,12.0,0.,12.0,0.,12.0
1979-07-21 10:04:00.410 ,3,1,0.,12.0,0.,12.0,0.,12.0,0.,12.0
1979-07-21 10:04:12.410 ,3,1,0.,12.0,0.,12.0,0.,12.0,0.,12.0
1979-07-21 10:04:24.410 ,7,1,0.,12.0,0.,12.0,0.,12.0,0.,12.0
1979-07-21 10:04:36.410 ,7,1,0.,12.0,0.,12.0,0.,12.0,0.,12.0
1979-07-21 10:04:48.410 ,4,1,0.,12.0,0.,12.0,0.,12.0,0.,12.0
1979-07-21 10:05:00.410 ,4,1,0.,12.0,0.,12.0,0.,12.0,0.,12.0
1979-07-21 10:05:12.410 ,0,1,0.,12.0,0.,12.0,0.,12.0,0.,12.0
1979-07-21 10:05:24.410 ,0,1,0.,12.0,0.,12.0,0.,12.0,0.,12.0
1979-07-21 10:05:36.410 ,0,0,0.,12.0,0.,12.0,0.,12.0,0.,12.0
1979-07-21 10:05:48.410 ,0,0,0.,12.0,0.,12.0,0.,12.0,0.,12.0
1979-07-21 10:06:00.410 ,0,0,0.,12.0,0.,12.0,0.,12.0,0.,12.0
1979-07-21 10:06:12.410 ,0,0,0.,12.0,0.,12.0,0.,12.0,0.,12.0
1979-07-21 10:06:24.410 ,5,1,0.,12.0,0.,12.0,0.,12.0,0.,12.0
1979-07-21 10:06:36.410 ,5,1,0.,12.0,0.,12.0,0.,12.0,0.,12.0
1979-07-21 10:06:48.410 ,5,0,0.,12.0,0.,12.0,0.,12.0,0.,12.0
1979-07-21 10:07:00.410 ,5,0,0.,12.0,0.,12.0,0.,12.0,0.,12.0
1979-07-21 10:07:12.410 ,4,1,0.,12.0,0.,12.0,0.,12.0,0.,12.0
1979-07-21 10:07:24.410 ,4,1,0.,12.0,0.,12.0,0.,12.0,0.,12.0
1979-07-21 10:07:36.410 ,4,0,0.,12.0,0.,12.0,0.,12.0,0.,12.0
1979-07-21 10:07:48.410 ,4,0,0.,12.0,0.,12.0,0.,12.0,0.,12.0
1979-07-21 10:08:00.410 ,3,1,0.,12.0,0.,12.0,0.,12.0,0.,12.0
1979-07-21 10:08:12.410 ,3,1,0.,12.0,0.,12.0,0.,12.0,0.,12.0
1979-07-21 10:08:24.410 ,3,0,0.,12.0,0.,12.0,0.,12.0,0.,12.0
1979-07-21 10:08:36.410 ,3,0,0.,12.0,0.,12.0,0.,12.0,0.,12.0
1979-07-21 10:08:48.410 ,2,1,0.,12.0,0.,12.0,0.,12.0,0.,12.0
1979-07-21 10:09:00.410 ,2,1,0.,12.0,0.,12.0,0.,12.0,0.,12.0
1979-07-21 10:09:12.410 ,2,0,0.,12.0,0.,12.0,0.,12.0,0.,12.0
1979-07-21 10:09:24.410 ,2,0,0.,12.0,0.,12.0,0.,12.0,0.,12.0
1979-07-21 10:09:36.410 ,1,1,0.,12.0,0.,12.0,0.,12.0,0.,12.0
1979-07-21 10:09:48.410 ,1,1,0.,12.0,0.,12.0,0.,12.0,0.,12.0
1979-07-21 10:10:00.410 ,1,0,0.,12.0,0.,12.0,0.,12.0,0.,12.0
1979-07-21 10:10:12.410 ,1,0,0.,12.0,0.,12.0,0.,12.0,0.,12.0
1979-07-21 10:10:24.410 ,0,1,0.,12.0,0.,12.0,0.,12.0,0.,12.0
1979-07-21 10:10:36.410 ,0,1,0.,12.0,0.,12.0,0.,12.0,0.,12.0
1979-07-21 10:10:48.410 ,0,0,0.,12.0,0.,12.0,0.,12.0,0.,12.0
1979-07-21 10:11:00.410 ,0,0,0.,12.0,0.,12.0,0.,12.0,0.,12.0
1979-07-21 10:11:12.410 ,0,1,0.,12.0,0.,12.0,0.,12.0,0.,12.0
1979-07-21 10:11:24.410 ,0,1,0.,12.0,0.,12.0,0.,12.0,0.,12.0
1979-07-21 10:11:36.410 ,0,0,0.,12.0,0.,12.0,0.,12.0,0.,12.0
1979-07-21 10:11:48.410 ,0,0,0.,12.0,0.,12.0,0.,12.0,0.,12.0
1979-07-21 10:12:00.410 ,1,1,0.,12.0,0.,12.0,0.,12.0,0.,12.0
1979-07-21 10:12:12.410 ,1,1,0.,12.0,0.,12.0,0.,12.0,0.,12.0
1979-07-21 10:12:24.410 ,1,0,0.,12.0,0.,12.0,0.,12.0,0.,12.0
1979-07-21 10:12:36.410 ,1,0,0.,12.0,0.,12.0,0.,12.0,0.,12.0
1979-07-21 10:12:48.410 ,2,1,0.,12.0,0.,12.0,0.,12.0,1.,12.0
1979-07-21 10:13:00.410 ,2,1,0.,12.0,0.,12.0,0.,12.0,0.,12.0
1979-07-21 10:13:12.410 ,2,0,0.,12.0,0.,12.0,0.,12.0,0.,12.0
1979-07-21 10:13:24.410 ,2,0,0.,12.0,0.,12.0,0.,12.0,0.,12.0
1979-07-21 10:13:36.410 ,3,1,0.,12.0,0.,12.0,0.,12.0,0.,12.0
1979-07-21 10:13:48.410 ,3,1,0.,12.0,0.,12.0,0.,12.0,0.,12.0
1979-07-21 10:14:00.410 ,3,0,0.,12.0,0.,12.0,0.,12.0,0.,12.0
1979-07-21 10:14:12.410 ,3,0,0.,12.0,0.,12.0,0.,12.0,0.,12.0
1979-07-21 10:14:24.410 ,4,1,0.,12.0,0.,12.0,0.,12.0,0.,12.0
1979-07-21 10:14:36.410 ,4,1,0.,12.0,0.,12.0,0.,12.0,0.,12.0
1979-07-21 10:14:48.410 ,4,0,0.,12.0,0.,12.0,0.,12.0,0.,12.0
1979-07-21 10:15:00.410 ,4,0,0.,12.0,0.,12.0,0.,12.0,0.,12.0
1979-07-21 10:15:12.410 ,5,1,0.,12.0,0.,12.0,0.,12.0,0.,12.0
1979-07-21 10:15:24.410 ,5,1,0.,12.0,0.,12.0,0.,12.0,0.,12.0
1979-07-21 10:15:36.410 ,5,0,0.,12.0,0.,12.0,0.,12.0,0.,12.0
1979-07-21 10:15:48.410 ,5,0,0.,12.0,0.,12.0,0.,12.0,0.,12.0
1979-07-21 10:16:00.410 ,6,1,0.,12.0,0.,12.0,0.,12.0,0.,12.0
1979-07-21 10:16:12.410 ,6,1,0.,12.0,0.,12.0,0.,12.0,0.,12.0
1979-07-21 10:16:24.410 ,6,0,0.,12.0,0.,12.0,0.,12.0,0.,12.0
1979-07-21 10:16:36.410 ,6,0,0.,12.0,0.,12.0,0.,12.0,0.,12.0
1979-07-21 10:16:48.410 ,7,1,0.,12.0,0.,12.0,0.,12.0,0.,12.0
1979-07-21 10:17:00.410 ,7,1,0.,12.0,0.,12.0,0.,12.0,0.,12.0
1979-07-21 10:17:12.410 ,7,0,0.,12.0,0.,12.0,0.,12.0,0.,12.0
1979-07-21 10:17:24.410 ,7,0,0.,12.0,0.,12.0,0.,12.0,0.,12.0